Weather History for KLBR - March, 2014

Change the Weather History Date:

Wednesday, March 5, 2014

  Actual Average (KPRX) Record (KPRX)
Temperature  
Mean Temperature 40 °F -  
Max Temperature 52 °F 59 °F 80 °F (2009)
Min Temperature 28 °F 39 °F 21 °F (2015)
Degree Days  
Heating Degree Days 25    
Moisture  
Dew Point 30 °F    
Average Humidity 71    
Maximum Humidity 93    
Minimum Humidity 43    
Precipitation  
Precipitation 0.00 in - - ()
Sea Level Pressure  
Sea Level Pressure 30.10 in    
Wind  
Wind Speed 2 mph (ENE)    
Max Wind Speed 8 mph    
Max Gust Speed -    
Visibility 9 miles    
Events      
Averages and records for this station are not official NWS values.
T = Trace of Precipitation, MM = Missing Value Source: NWS Daily Summary

Daily Weather History Graph

Daily Weather History Graph

Search for Another Location

Airport or City:

Trip Planner

Search our weather history database for the weather conditions in past years. The results will help you decide how hot, cold, wet, or windy it might be!

Date:

Astronomy

Mar. 05, 2014 Rise Set
Actual Time 6:43 AM CST 6:20 PM CST
Civil Twilight 6:18 AM CST 6:45 PM CST
Nautical Twilight 5:49 AM CST 7:14 PM CST
Astronomical Twilight 5:21 AM CST 7:42 PM CST
Moon 9:24 AM CST (3/5) 11:13 PM CST (3/5)
Length of Visible Light 12h 26m
Length of Day
11h 36m
Waxing Crescent, 23% of the Moon is Illuminated
Mar 5
Waxing Crescent
Mar 8
First Quarter
Mar 16
Full
Mar 23
Last Quarter
Mar 30
New

Hourly Weather History & Observations

Time (CST) Temp. Windchill Dew Point Humidity Pressure Visibility Wind Dir Wind Speed Gust Speed Precip Events Conditions
12:15 AM 32.0 °F - 29.3 °F 90% 30.09 in 10.0 mi Calm Calm - N/A   Clear
12:35 AM 32.0 °F - 27.9 °F 85% 30.09 in 10.0 mi Calm Calm - N/A   Clear
12:55 AM 32.0 °F - 27.1 °F 82% 30.10 in 10.0 mi Calm Calm - N/A   Clear
1:15 AM 30.7 °F - 27.3 °F 87% 30.11 in 10.0 mi Calm Calm - N/A   Clear
1:35 AM 31.6 °F - 26.6 °F 82% 30.11 in 10.0 mi Calm Calm - N/A   Clear
1:55 AM 31.1 °F 27.7 °F 26.4 °F 83% 30.10 in 10.0 mi East 3.5 mph - N/A   Clear
2:15 AM 31.1 °F 27.7 °F 26.4 °F 83% 30.08 in 10.0 mi East 3.5 mph - N/A   Clear
2:35 AM 30.9 °F 27.5 °F 26.6 °F 84% 30.08 in 10.0 mi ENE 3.5 mph - N/A   Clear
2:55 AM 30.6 °F - 26.2 °F 84% 30.07 in 7.0 mi Calm Calm - N/A   Clear
3:15 AM 30.2 °F - 25.7 °F 83% 30.07 in 10.0 mi Calm Calm - N/A   Clear
3:35 AM 30.2 °F - 25.7 °F 83% 30.08 in 7.0 mi Calm Calm - N/A   Clear
3:55 AM 30.2 °F - 25.9 °F 84% 30.08 in 7.0 mi Calm Calm - N/A   Clear
4:15 AM 29.5 °F - 25.7 °F 86% 30.10 in 10.0 mi Calm Calm - N/A   Clear
4:35 AM 29.1 °F - 25.9 °F 88% 30.10 in 10.0 mi Calm Calm - N/A   Clear
4:55 AM 29.1 °F - 26.1 °F 88% 30.11 in 7.0 mi Calm Calm - N/A   Clear
5:15 AM 29.1 °F - 26.4 °F 90% 30.11 in 10.0 mi Calm Calm - N/A   Clear
5:35 AM 28.8 °F 25.0 °F 26.2 °F 90% 30.12 in 10.0 mi ENE 3.5 mph - N/A   Clear
5:55 AM 28.6 °F 22.4 °F 26.1 °F 90% 30.11 in 7.0 mi East 5.8 mph - N/A   Clear
6:15 AM 28.8 °F 22.6 °F 26.4 °F 91% 30.11 in 10.0 mi East 5.8 mph - N/A   Clear
6:35 AM 28.4 °F 21.2 °F 26.4 °F 92% 30.11 in 7.0 mi East 6.9 mph - N/A   Clear
6:55 AM 28.4 °F 22.2 °F 26.6 °F 93% 30.10 in 7.0 mi East 5.8 mph - N/A   Clear
7:15 AM 28.9 °F 23.9 °F 26.8 °F 92% 30.10 in 7.0 mi ENE 4.6 mph - N/A   Clear
7:35 AM 29.8 °F 23.9 °F 27.5 °F 91% 30.11 in 7.0 mi ENE 5.8 mph - N/A   Clear
7:55 AM 30.9 °F - 28.4 °F 90% 30.12 in 7.0 mi Calm Calm - N/A   Clear
8:15 AM 31.5 °F 24.9 °F 28.4 °F 88% 30.13 in 7.0 mi NE 6.9 mph - N/A   Clear
8:35 AM 32.0 °F 26.4 °F 28.0 °F 85% 30.13 in 7.0 mi NE 5.8 mph - N/A   Clear
8:55 AM 33.3 °F 27.1 °F 28.6 °F 83% 30.13 in 7.0 mi East 6.9 mph - N/A   Clear
9:15 AM 34.9 °F 29.0 °F 29.5 °F 81% 30.13 in 7.0 mi East 6.9 mph - N/A   Clear
9:35 AM 35.6 °F 31.7 °F 29.1 °F 77% 30.13 in 7.0 mi ENE 4.6 mph - N/A   Clear
9:55 AM 37.2 °F 31.9 °F 30.9 °F 78% 30.13 in 7.0 mi ENE 6.9 mph - N/A   Clear
10:15 AM 38.3 °F 33.9 °F 30.2 °F 73% 30.12 in 7.0 mi ENE 5.8 mph - N/A   Clear
10:35 AM 39.7 °F 34.9 °F 31.5 °F 72% 30.11 in 7.0 mi ENE 6.9 mph - N/A   Clear
10:55 AM 42.1 °F 37.1 °F 30.7 °F 64% 30.12 in 7.0 mi East 8.1 mph - N/A   Clear
11:15 AM 43.5 °F 40.1 °F 31.3 °F 62% 30.11 in 7.0 mi East 5.8 mph - N/A   Clear
11:35 AM 45.1 °F 42.8 °F 30.4 °F 56% 30.12 in 7.0 mi ENE 4.6 mph - N/A   Clear
11:55 AM 46.0 °F 42.5 °F 31.8 °F 58% 30.11 in 10.0 mi ESE 6.9 mph - N/A   Clear
12:15 PM 46.4 °F - 31.5 °F 56% 30.12 in 7.0 mi Calm Calm - N/A   Clear
12:35 PM 47.1 °F - 31.1 °F 54% 30.11 in 7.0 mi Calm Calm - N/A   Clear
12:55 PM 48.4 °F - 31.3 °F 52% 30.10 in 10.0 mi Calm Calm - N/A   Clear
1:15 PM 49.8 °F - 32.9 °F 52% 30.09 in 7.0 mi Calm Calm - N/A   Clear
1:35 PM 49.8 °F - 32.2 °F 51% 30.08 in 7.0 mi Calm Calm - N/A   Clear
1:55 PM 49.6 °F - 32.2 °F 51% 30.09 in 7.0 mi Calm Calm - N/A   Clear
2:15 PM 51.1 °F - 32.9 °F 50% 30.08 in 7.0 mi North 4.6 mph - N/A   Clear
2:35 PM 51.6 °F - 32.7 °F 49% 30.08 in 10.0 mi NNE 4.6 mph - N/A   Clear
2:55 PM 50.9 °F - 31.5 °F 47% 30.07 in 10.0 mi North 6.9 mph - N/A   Clear
3:15 PM 51.1 °F - 30.7 °F 46% 30.07 in 7.0 mi Calm Calm - N/A   Clear
3:35 PM 52.0 °F - 30.2 °F 43% 30.07 in 7.0 mi ENE 5.8 mph - N/A   Clear
4:00 PM 52.2 °F - 31.6 °F 46% 30.07 in 7.0 mi Calm Calm - N/A   Clear
4:15 PM 52.0 °F - 31.3 °F 45% 30.07 in 10.0 mi NNE 4.6 mph - N/A   Clear
4:35 PM 51.6 °F - 30.2 °F 44% 30.07 in 10.0 mi NE 4.6 mph - N/A   Clear
4:55 PM 50.9 °F - 33.1 °F 51% 30.07 in 10.0 mi Calm Calm - N/A   Clear
5:15 PM 50.5 °F - 35.8 °F 57% 30.07 in 10.0 mi Calm Calm - N/A   Clear
5:35 PM 50.2 °F - 35.4 °F 57% 30.06 in 7.0 mi Calm Calm - N/A   Clear
5:55 PM 50.0 °F - 33.6 °F 53% 30.06 in 10.0 mi Calm Calm - N/A   Clear
6:15 PM 49.5 °F - 33.6 °F 54% 30.07 in 10.0 mi Calm Calm - N/A   Clear
6:35 PM 48.9 °F - 32.9 °F 54% 30.08 in 10.0 mi Calm Calm - N/A   Clear
6:55 PM 48.0 °F - 33.3 °F 57% 30.10 in 10.0 mi Calm Calm - N/A   Clear
7:15 PM 46.6 °F - 32.9 °F 59% 30.09 in 10.0 mi Calm Calm - N/A   Clear
7:35 PM 46.0 °F - 32.9 °F 60% 30.10 in 10.0 mi Calm Calm - N/A   Clear
7:55 PM 45.5 °F - 33.1 °F 62% 30.10 in 10.0 mi Calm Calm - N/A   Clear
8:15 PM 41.7 °F - 33.3 °F 72% 30.11 in 10.0 mi Calm Calm - N/A   Clear
8:40 PM 41.5 °F - 33.4 °F 73% 30.12 in 10.0 mi Calm Calm - N/A   Clear
8:55 PM 40.3 °F - 33.8 °F 78% 30.12 in 10.0 mi Calm Calm - N/A   Clear
9:15 PM 40.8 °F - 33.6 °F 76% 30.14 in 10.0 mi Calm Calm - N/A   Clear
9:35 PM 40.8 °F - 34.0 °F 77% 30.14 in 10.0 mi Calm Calm - N/A   Clear
9:55 PM 40.1 °F - 34.7 °F 81% 30.15 in 10.0 mi Calm Calm - N/A   Clear
10:15 PM 42.6 °F - 34.2 °F 72% 30.15 in 10.0 mi Calm Calm - N/A   Clear
10:35 PM 41.5 °F - 34.2 °F 75% 30.16 in 10.0 mi Calm Calm - N/A   Clear
10:55 PM 40.3 °F - 34.5 °F 80% 30.16 in 10.0 mi Calm Calm - N/A   Clear
11:15 PM 42.4 °F - 34.9 °F 75% 30.16 in 10.0 mi Calm Calm - N/A   Clear
11:35 PM 40.1 °F - 34.7 °F 81% 30.17 in 10.0 mi Calm Calm - N/A   Clear
11:55 PM 40.1 °F - 35.2 °F 83% 30.17 in 10.0 mi Calm Calm - N/A   Clear